GFSSW_700_temp_198.txt.gz
Temp
11 11 11 11 11 11 11 11 11 11 11 11 11 11 11 11 11 12 12 12 11 11 12 12 12 12 12 13 13 12 12 12 12 11 11 11 12 11 11 11 11 11 11 11 11
11 11 12 12 12 11 12 11 11 11 11 11 11 11 11 11 11 11 12 12 12 12 12 12 12 12 12 13 13 12 12 12 12 12 12 11 11 11 11 11 11 11 11 11 12
11 12 12 12 12 12 12 12 12 12 11 11 11 11 11 11 11 11 11 12 12 12 12 12 12 12 13 13 13 13 12 12 13 13 12 12 11 11 11 11 11 11 11 12 12
11 12 12 12 12 12 12 12 12 12 12 12 12 12 12 11 11 11 11 11 12 12 12 12 12 13 13 13 13 13 12 13 13 13 13 12 12 12 11 11 11 11 11 11 12
11 12 12 12 12 12 13 13 13 13 13 13 13 13 13 12 11 11 11 11 12 12 12 12 12 12 13 13 13 13 13 13 13 13 12 13 12 12 12 12 11 11 11 11 11
12 12 12 12 12 13 13 13 13 13 13 13 13 13 13 13 12 11 11 11 12 12 12 12 12 12 13 13 13 13 13 13 13 13 13 12 13 13 13 12 12 11 11 11 11
11 12 12 12 12 13 13 13 13 14 14 14 14 14 14 13 13 12 12 12 12 12 12 12 12 12 13 13 13 13 13 14 13 13 13 13 13 14 14 13 13 12 11 11 11
12 12 12 13 13 13 13 13 14 14 14 14 14 14 14 14 13 13 12 12 12 12 12 12 12 13 13 13 13 13 14 14 14 13 13 12 15 13 14 13 13 12 11 11 11
12 12 12 12 13 13 13 14 14 14 14 14 14 14 14 13 13 12 12 12 12 13 12 12 11 12 13 13 13 14 14 14 14 14 13 13 14 14 14 14 13 13 12 12 11
12 12 12 13 13 13 14 14 14 14 14 14 14 14 14 13 13 12 12 12 12 12 12 12 12 12 13 13 13 13 14 14 14 14 13 14 15 14 14 14 14 13 13 13 12
12 13 13 13 13 13 14 14 14 14 14 14 14 14 14 14 13 13 12 12 12 12 12 12 12 12 13 12 13 13 13 14 15 15 14 15 15 16 14 14 14 14 13 13 13
12 13 13 13 13 14 14 14 14 14 15 14 14 14 13 13 13 13 12 12 12 12 12 12 12 13 12 12 13 13 13 15 15 15 14 15 15 15 15 15 15 15 14 13 13
12 13 13 13 13 14 14 14 14 14 15 14 15 15 13 13 13 12 12 12 12 12 12 11 12 12 12 13 13 13 14 14 14 15 15 15 15 15 16 16 16 16 15 14 13
12 13 13 13 14 14 14 14 14 14 14 14 15 14 13 13 13 12 12 12 12 12 12 12 13 13 13 13 13 14 14 14 14 14 15 15 14 16 16 16 16 16 15 15 14
12 13 13 13 13 13 13 13 13 13 12 14 14 14 14 13 13 13 12 12 12 12 12 13 13 13 13 14 14 14 14 14 15 15 15 15 15 16 17 17 17 16 16 16 15
12 12 12 12 13 13 13 13 13 13 13 14 14 14 14 13 13 13 12 12 12 12 12 13 13 13 14 14 14 14 14 14 14 14 13 14 14 17 17 17 17 17 16 16 16
12 12 12 12 13 13 13 13 13 13 13 14 13 14 14 13 13 13 13 13 12 12 12 13 14 15 14 15 15 15 14 13 12 11 10 14 15 16 17 16 18 17 17 16 16
12 12 12 12 12 12 12 12 13 13 13 13 14 14 13 13 13 13 13 13 13 12 12 12 14 15 15 15 14 14 14 14 11 9 12 14 15 16 16 16 18 18 17 17 16
11 12 12 12 12 12 12 12 12 12 12 13 13 13 13 13 14 13 13 13 13 13 12 13 13 15 14 14 14 14 15 15 14 12 12 14 16 16 17 17 17 17 17 17 16
11 11 11 11 11 11 11 11 11 12 13 13 13 13 13 13 13 13 13 12 12 13 13 13 13 15 15 14 15 15 15 15 14 11 11 13 14 16 16 17 17 17 17 17 16
10 11 11 11 11 11 11 11 12 12 12 12 12 13 13 12 12 13 12 12 12 13 13 13 13 14 14 15 15 15 15 15 14 14 9 9 14 16 16 16 16 16 17 17 17
10 10 11 10 10 10 10 11 11 12 12 12 12 12 12 12 12 12 12 12 12 12 11 12 12 13 13 14 14 15 14 15 13 13 13 12 14 15 15 15 15 16 16 17 17
10 10 10 10 9 10 10 11 11 11 12 12 12 11 11 11 11 11 11 11 11 11 11 11 11 11 13 13 14 13 13 13 13 13 13 11 14 15 15 15 15 15 15 16 16
10 10 9 9 9 10 10 10 10 11 11 11 11 10 10 10 10 10 10 10 10 10 10 10 10 10 10 11 11 12 12 11 11 12 13 13 14 14 14 14 15 15 15 15 15
10 10 10 10 10 10 10 10 10 10 10 10 10 10 10 9 9 9 9 10 10 10 9 8 8 9 10 10 10 10 11 10 10 11 11 12 12 13 14 14 14 14 14 14 15
10 10 10 10 9 9 10 10 10 10 10 9 9 9 9 9 9 9 9 8 9 8 8 8 8 8 8 9 9 9 10 11 11 10 11 11 11 11 12 13 13 14 14 14 14
10 10 10 10 9 9 9 9 9 9 9 9 9 9 8 8 8 8 8 8 7 7 8 7 7 7 6 8 8 8 9 9 9 9 10 10 10 11 11 12 12 12 12 13 13

GFSSW_700_temp_201.txt.gz
Temp
11 11 11 11 11 11 11 11 11 11 11 11 11 11 11 11 11 12 12 11 11 12 12 12 12 12 13 13 13 13 12 12 12 12 12 12 11 11 11 11 11 11 11 11 12
11 11 11 11 11 11 11 11 11 11 11 11 11 11 11 11 11 11 12 12 12 12 12 12 12 12 13 13 13 13 12 12 12 12 12 12 11 11 11 11 11 11 11 11 12
11 12 12 12 12 12 12 11 11 11 11 11 11 11 11 11 11 11 12 12 12 12 12 12 12 12 13 13 13 13 12 12 12 12 12 12 12 12 11 11 11 11 11 11 12
11 12 12 12 12 12 12 12 12 12 12 12 12 11 11 11 11 11 12 12 12 12 12 12 12 13 13 13 13 13 13 13 12 13 12 12 12 12 12 11 11 11 10 11 12
11 11 12 12 12 12 12 12 12 12 12 12 12 12 12 12 11 11 11 12 12 12 12 12 12 13 13 13 13 13 13 13 13 13 13 13 13 13 12 12 11 11 10 11 11
11 12 12 12 12 12 13 13 13 13 13 13 13 13 13 12 12 11 11 11 12 12 12 12 12 13 13 13 13 13 13 13 13 13 13 13 13 13 13 12 12 11 10 11 11
11 12 12 12 12 12 13 13 13 13 13 13 13 13 13 13 12 12 11 11 12 12 12 12 12 12 13 13 13 13 14 14 14 14 14 13 14 14 14 13 12 12 11 11 10
11 11 12 12 13 13 13 13 13 13 13 13 13 13 13 13 13 12 12 12 12 12 12 12 12 12 13 13 13 13 14 14 14 14 14 13 14 14 13 13 13 12 12 11 10
12 12 12 12 13 13 13 13 13 14 13 14 14 14 13 13 12 12 11 11 12 12 12 12 12 12 12 13 13 13 14 14 14 14 13 13 15 15 14 14 13 13 12 11 11
12 12 12 12 13 13 13 14 14 14 14 14 14 14 13 13 12 12 12 12 12 12 12 12 12 12 12 12 13 13 13 14 14 14 15 14 15 15 15 14 14 13 13 12 12
12 12 13 13 13 13 14 14 14 14 14 14 14 14 13 13 13 12 12 12 12 12 12 12 12 12 12 12 12 13 13 14 14 14 15 15 15 16 15 15 15 14 14 14 13
12 13 13 13 13 14 14 14 14 14 14 14 14 13 13 13 13 12 12 11 11 11 12 12 12 12 12 12 12 13 13 14 15 14 15 15 15 15 15 16 16 15 15 14 13
12 13 13 13 14 14 14 14 14 14 14 14 14 13 13 13 12 12 12 12 11 12 12 12 12 12 12 12 12 13 14 14 14 15 15 15 15 16 16 16 16 16 16 15 14
12 12 13 13 14 14 13 13 13 14 14 14 14 14 13 12 12 12 12 12 12 11 11 12 12 12 13 13 13 13 14 14 14 14 14 15 15 16 17 16 16 16 16 16 15
12 12 13 13 13 13 13 13 13 13 14 13 13 13 13 12 12 12 12 12 12 12 12 12 13 12 12 13 13 14 14 14 14 14 14 14 14 17 16 16 17 16 16 16 15
12 12 12 12 12 12 13 13 13 13 13 13 13 13 13 13 13 13 12 12 12 12 12 13 12 13 13 14 14 14 14 14 14 14 15 14 14 16 16 16 17 17 17 16 16
12 12 12 12 12 12 12 12 13 13 13 13 13 13 13 13 13 13 13 13 12 12 12 13 13 14 14 14 14 14 14 14 15 15 16 14 14 16 16 16 16 17 17 17 16
11 12 12 12 12 12 12 12 12 12 13 13 14 13 13 13 13 13 13 13 13 12 12 12 14 14 14 14 14 14 14 15 14 15 16 14 15 17 16 16 16 17 17 17 16
11 11 11 11 11 11 11 11 11 12 13 13 13 13 13 13 13 13 12 12 12 12 11 12 13 14 14 14 13 14 14 14 14 13 13 15 16 16 16 16 16 17 16 16 16
10 11 11 11 11 11 11 11 11 12 12 13 13 13 13 13 13 13 12 12 12 12 12 12 12 14 14 14 14 14 14 14 14 14 15 15 14 16 16 16 16 16 17 17 16
10 10 10 10 11 11 11 11 11 12 12 12 13 13 13 13 12 12 12 11 11 12 12 12 12 13 14 14 14 14 13 14 14 14 16 16 16 16 16 16 16 16 16 16 17
9 10 10 10 10 10 10 11 11 12 12 12 12 12 12 12 12 12 12 11 11 11 11 11 11 11 12 13 13 13 13 13 14 14 12 13 15 16 15 15 15 16 16 16 16
10 10 10 10 10 10 10 11 11 11 11 11 12 11 11 11 11 11 11 11 11 11 10 10 10 11 12 13 13 12 12 12 12 12 12 14 15 15 15 15 15 15 15 15 15
9 9 9 9 10 10 10 10 11 11 11 11 11 10 10 10 10 10 10 10 10 10 10 10 9 10 11 11 11 10 11 11 10 10 12 12 13 14 13 13 14 14 15 15 15
9 9 10 10 9 10 10 10 10 10 10 10 10 10 10 9 10 10 10 10 9 10 9 8 8 9 9 9 9 10 10 11 9 10 10 11 11 11 12 13 13 14 14 14 14
9 9 9 10 10 9 10 9 9 10 9 9 9 9 9 9 9 8 8 8 8 8 8 7 7 8 8 9 9 8 9 10 10 10 8 9 10 10 11 12 12 13 13 14 14
10 10 10 10 9 9 9 9 9 9 9 9 9 9 9 9 8 8 8 7 7 7 8 7 7 6 7 8 7 8 8 8 9 8 8 9 9 10 10 10 10 11 12 13 13

GFSSW_700_temp_207.txt.gz
Temp
11 11 11 11 11 11 11 11 11 11 11 11 11 11 12 12 12 12 12 12 12 12 12 13 13 13 13 14 14 14 15 15 15 14 13 11 12 11 12 12 12 12 12 11 12
11 11 11 11 11 11 11 11 11 11 11 11 11 11 12 12 12 12 12 12 12 12 13 12 13 14 15 15 14 15 15 14 14 14 13 12 12 12 12 12 12 11 10 11 11
11 12 12 11 11 11 11 11 11 11 11 11 11 11 11 12 12 12 12 12 12 12 13 13 13 14 16 16 15 15 15 14 14 13 13 13 12 12 13 12 12 12 11 10 9
11 12 12 12 12 12 12 12 11 11 11 11 11 11 11 12 13 12 12 12 12 13 13 13 14 15 16 16 15 15 14 14 14 14 13 13 12 13 12 12 12 12 11 11 9
11 12 12 12 12 12 12 12 12 12 12 12 12 12 11 12 12 12 12 13 12 13 13 13 14 15 16 16 15 15 15 15 14 14 14 13 13 13 13 12 11 11 10 10 10
11 12 12 12 12 12 12 12 12 12 12 12 12 12 12 11 12 12 12 13 13 13 13 13 14 14 15 15 15 15 15 15 15 15 15 14 14 13 13 13 12 11 11 10 10
11 12 12 12 12 12 12 13 13 13 13 13 13 13 13 12 13 13 12 11 12 12 13 13 13 14 15 16 15 15 16 15 15 15 15 15 15 14 14 13 12 12 11 10 10
11 11 12 12 12 12 13 13 13 13 13 13 13 13 12 13 13 13 12 12 12 12 12 12 12 13 14 15 15 16 16 17 16 15 15 15 17 15 14 13 13 13 12 11 10
11 12 12 12 12 13 13 13 13 13 13 13 13 13 12 14 13 13 12 12 12 12 12 13 13 14 15 15 17 17 18 17 16 15 15 16 16 16 16 14 14 13 12 11 10
12 12 12 12 12 13 13 13 13 13 13 13 13 13 14 13 12 12 12 12 12 12 12 12 13 15 15 17 19 18 17 17 17 16 16 16 17 17 16 15 14 14 13 12 11
12 12 12 12 12 13 13 13 13 13 14 12 13 12 13 13 14 13 12 12 12 13 13 14 15 16 17 17 16 16 16 17 17 16 16 16 16 17 17 16 15 15 14 13 12
12 12 13 13 13 13 13 13 13 14 12 14 14 14 14 12 12 12 12 12 13 14 14 15 15 16 16 16 15 16 16 17 17 16 16 17 17 17 17 17 17 15 15 14 13
12 13 13 13 13 13 13 14 14 13 13 14 14 13 13 13 13 13 12 13 14 14 15 15 17 15 15 15 16 16 17 17 17 16 17 17 18 18 17 17 16 16 16 15 14
12 13 13 13 13 13 13 14 14 14 14 14 13 12 13 12 13 13 12 13 14 15 15 16 16 15 15 16 16 17 17 17 16 16 18 18 19 18 17 17 17 17 16 16 15
12 13 13 13 13 14 14 14 14 14 18 15 13 14 13 13 14 13 13 13 14 15 15 16 15 15 15 16 16 17 16 16 16 17 18 20 20 18 18 18 18 18 18 17 15
12 12 13 13 13 13 14 14 14 13 18 15 14 14 13 13 14 13 13 13 14 14 15 15 15 15 16 16 16 16 16 16 17 18 20 19 19 20 18 18 17 17 17 17 16
12 12 12 13 13 13 14 14 14 16 16 15 15 14 15 15 15 14 14 14 15 16 16 16 16 16 15 16 16 16 17 19 20 20 21 19 19 20 18 17 17 17 17 16 16
12 12 12 12 13 13 13 12 15 17 17 16 16 15 16 16 16 15 15 16 15 16 17 18 18 17 16 16 17 17 18 19 19 21 20 19 20 19 18 17 17 17 16 16 16
11 11 12 12 12 12 13 14 17 16 16 16 16 16 16 16 16 16 16 17 16 15 16 18 18 16 16 16 16 18 17 18 19 20 20 20 20 19 18 18 18 17 16 16 15
11 11 11 11 12 12 12 14 15 14 14 16 17 17 17 16 16 16 16 15 15 14 14 16 17 17 17 16 16 17 17 18 19 19 19 20 18 20 18 18 17 17 16 15 15
10 10 11 11 11 12 13 15 14 13 14 15 16 16 17 16 16 17 16 14 13 14 14 15 16 17 16 17 17 17 17 17 18 19 20 20 19 17 17 17 16 15 14 14 14
9 11 11 11 10 12 14 13 13 14 14 14 15 16 16 15 16 16 15 14 13 13 14 15 14 16 17 17 17 17 16 17 18 18 18 18 18 17 17 16 15 13 12 15 15
10 10 11 11 12 13 13 13 13 13 13 14 14 14 14 15 14 14 14 12 12 12 13 13 14 16 17 18 17 17 16 17 16 17 17 18 18 16 15 14 13 12 12 12 15
10 11 10 10 11 13 13 13 13 12 12 13 13 13 13 14 14 14 13 12 11 11 12 12 13 14 16 16 16 15 15 15 15 16 17 17 17 17 13 12 12 11 10 10 13
9 11 11 12 12 12 13 13 13 13 12 12 12 13 13 13 14 13 13 12 12 10 11 11 13 13 14 14 14 14 14 14 14 14 15 15 15 15 15 12 10 9 10 10 12
9 9 10 10 11 11 12 12 13 12 12 12 12 12 11 12 12 12 12 11 11 11 10 11 11 11 12 12 13 13 13 13 13 14 14 14 14 13 12 10 9 8 8 8 11
10 9 10 10 11 11 12 12 11 10 10 10 10 10 11 11 10 10 10 10 10 10 10 10 11 11 12 13 12 12 13 13 13 12 12 12 11 9 9 8 8 7 7 8 9

GFSSW_700_temp_210.txt.gz
Temp
11 11 11 11 11 11 11 11 11 11 11 11 11 12 12 12 12 12 12 12 12 13 13 14 14 14 15 16 15 15 15 16 15 14 14 13 12 13 13 13 12 11 11 11 11
11 11 11 11 11 12 11 11 11 11 11 11 11 12 12 12 12 13 12 12 13 13 13 13 14 15 16 16 16 15 16 16 16 15 14 13 13 13 13 13 11 12 11 11 10
12 12 12 12 12 12 12 12 12 11 11 11 11 11 12 12 13 12 13 13 13 13 13 14 14 15 16 17 17 16 16 16 15 15 14 14 14 13 13 12 12 11 11 10 10
12 12 12 12 12 12 12 12 12 12 11 11 11 11 11 12 13 12 13 13 13 13 14 14 15 16 17 17 17 16 15 15 15 15 15 15 14 14 13 13 13 12 11 10 10
12 12 12 12 12 12 12 12 12 12 12 12 12 12 12 13 13 13 13 13 13 13 14 14 15 16 17 17 17 16 16 16 15 15 15 15 14 14 14 13 13 12 11 11 11
11 12 12 12 13 13 13 13 13 12 12 13 12 12 12 13 12 13 13 14 13 13 13 14 15 15 16 17 17 16 16 16 16 16 16 16 15 15 14 14 13 12 12 11 11
11 12 12 12 12 13 13 13 13 13 13 13 13 13 13 13 12 13 13 13 13 13 14 14 14 15 15 17 16 17 17 16 16 16 16 16 15 15 15 14 13 13 12 12 11
11 11 12 12 12 13 13 13 13 13 13 13 13 13 13 12 13 14 12 12 12 13 13 14 13 14 15 16 16 17 17 17 17 16 16 17 15 15 15 14 14 14 13 12 11
11 11 12 12 12 13 13 13 13 13 13 13 13 13 12 14 14 14 12 13 13 13 13 13 13 14 16 16 17 18 18 18 18 17 16 17 17 17 16 15 15 14 13 12 11
12 12 12 12 13 13 13 13 13 13 14 13 14 14 14 13 14 14 12 13 13 13 14 14 14 15 16 17 18 18 18 19 18 18 17 17 17 18 16 16 16 15 14 13 12
12 12 12 12 13 13 13 13 13 14 14 13 13 13 13 13 13 13 13 13 13 14 14 15 15 16 18 18 18 17 18 18 18 18 17 17 18 18 18 17 16 16 15 14 13
12 12 12 12 13 13 13 13 11 12 12 14 14 13 13 13 13 13 13 13 14 15 15 16 16 17 18 18 17 17 18 18 18 18 18 18 18 18 18 18 17 17 16 15 14
12 12 12 13 13 13 13 14 14 14 13 14 14 14 14 14 14 14 13 14 15 15 16 17 18 17 17 17 17 17 18 18 18 18 18 18 19 19 18 18 17 17 17 16 15
12 13 13 13 13 13 13 14 14 14 13 15 14 14 14 14 15 15 14 14 15 16 16 17 17 17 17 17 17 18 19 18 18 17 18 19 20 18 18 18 18 18 17 17 16
12 13 13 13 13 14 14 14 14 14 16 15 15 14 14 14 15 15 14 14 15 16 16 17 17 17 17 17 18 18 18 17 18 18 18 20 20 18 18 19 18 18 18 18 17
12 12 13 13 13 14 14 14 14 13 17 16 15 15 15 15 16 15 14 14 15 16 16 17 17 17 17 17 17 17 17 18 18 18 19 20 21 19 19 18 18 18 18 18 17
12 12 13 13 13 13 14 14 13 15 18 17 16 15 16 16 16 15 15 15 16 16 17 17 17 17 17 17 17 17 18 19 19 20 18 20 20 20 18 18 18 18 18 17 17
12 12 13 13 13 14 13 12 15 18 19 18 17 16 17 17 17 16 16 16 16 17 18 19 19 18 18 17 18 18 19 19 19 19 20 19 21 19 19 18 18 18 17 17 17
11 12 12 12 13 13 13 13 16 18 18 18 18 17 18 17 17 17 17 18 18 17 17 18 19 18 17 17 18 18 19 19 19 21 21 21 19 20 19 18 18 17 17 16 16
11 11 11 12 12 13 11 14 16 17 17 17 18 18 18 18 17 17 18 17 17 16 16 17 18 18 18 17 17 18 18 18 19 19 19 20 18 18 18 18 17 17 16 16 15
11 10 11 12 12 12 13 15 17 16 15 17 18 18 18 17 18 18 18 16 16 16 15 16 17 17 18 18 18 18 18 18 19 19 20 20 18 17 17 16 15 13 14 14 14
11 11 11 12 11 12 14 15 15 16 15 16 16 18 18 18 17 18 17 15 14 14 15 16 16 16 17 18 18 18 18 18 18 18 19 19 18 16 16 13 14 14 12 12 13
11 11 11 12 12 14 15 15 15 15 15 16 16 16 16 16 16 16 16 14 14 14 14 13 15 16 17 18 18 18 18 18 18 18 18 18 18 13 14 13 13 12 12 11 11
11 12 11 11 11 13 15 15 14 14 15 15 15 15 15 15 16 15 15 14 13 13 13 13 14 15 16 16 16 16 17 16 16 17 17 17 17 15 15 15 13 12 10 9 10
10 12 13 13 13 14 15 15 15 14 14 14 14 14 15 15 15 15 15 15 14 13 12 12 13 14 15 15 15 15 15 15 16 16 16 16 16 16 14 12 11 10 9 8 8
10 10 11 12 12 13 14 14 14 15 14 14 13 14 14 13 14 14 14 13 13 13 12 13 13 13 13 14 14 15 15 15 15 15 15 15 15 12 11 10 9 9 9 8 8
10 10 11 11 13 13 14 14 13 13 12 12 12 12 13 12 12 12 11 12 12 12 12 12 12 12 13 13 14 14 15 14 14 14 14 13 11 10 9 8 8 8 7 6 8

GFSSW_700_temp_216.txt.gz
Temp
11 11 11 11 11 11 11 11 11 11 11 11 11 11 12 12 12 12 13 13 14 14 15 15 15 15 15 15 15 15 15 14 14 14 14 13 13 12 13 13 12 12 10 10 10
11 11 11 11 11 11 11 11 11 11 11 11 11 12 12 12 12 13 13 13 14 14 15 15 15 15 15 15 15 16 15 15 15 14 14 14 13 13 13 13 12 12 12 11 10
11 11 11 11 12 12 11 11 11 11 11 11 11 11 12 12 12 13 13 13 14 14 14 15 15 15 16 16 16 16 15 15 15 14 14 14 13 14 13 13 13 12 12 11 9
11 12 12 12 12 12 12 12 11 11 11 11 11 11 12 12 13 13 13 13 14 14 14 14 15 15 15 16 16 16 16 16 15 15 15 15 14 14 13 13 13 12 11 11 11
12 12 12 12 12 12 12 12 12 12 11 11 11 12 12 13 13 13 13 13 14 14 14 14 14 15 15 16 16 16 16 16 16 15 15 15 14 15 14 14 13 13 11 11 10
11 12 12 12 13 13 13 13 12 12 12 12 12 12 13 13 13 13 13 14 14 14 14 14 14 14 15 16 16 16 16 16 16 16 15 16 15 14 13 14 15 14 13 12 11
11 11 12 12 13 13 13 13 13 13 13 13 13 13 13 13 13 14 14 14 13 14 14 14 14 14 15 16 16 16 16 16 16 16 16 16 15 14 14 14 14 14 13 13 12
11 11 12 12 12 13 13 13 13 13 13 13 14 14 13 13 14 14 14 14 13 14 13 14 14 15 16 16 16 16 16 16 16 17 16 17 16 15 15 15 14 14 13 13 13
11 11 12 12 12 12 13 13 13 13 13 14 14 14 14 14 14 13 14 14 13 14 14 14 15 15 15 16 16 16 16 16 16 17 17 17 17 15 15 15 14 14 14 14 13
11 11 11 12 12 12 13 13 13 13 14 14 14 14 14 14 14 14 14 13 13 13 14 15 15 15 15 15 15 16 17 17 17 17 17 17 17 17 16 15 15 15 14 14 14
11 12 12 12 12 12 12 13 13 13 14 13 13 13 13 13 14 14 14 13 13 13 14 14 15 16 17 16 16 16 17 17 18 17 17 18 18 17 17 16 15 15 15 15 15
11 12 12 12 12 12 12 13 13 14 14 14 14 13 13 14 14 14 14 14 14 14 14 14 15 16 16 16 17 17 17 17 18 18 17 17 18 18 17 17 17 17 16 16 15
11 12 12 12 12 12 12 12 12 13 14 15 14 14 14 14 14 14 14 14 14 14 14 15 16 16 16 16 17 17 17 17 18 18 18 18 18 17 18 17 17 17 17 16 16
11 12 12 12 12 12 12 12 12 13 14 15 15 15 15 14 14 14 14 14 14 15 15 15 16 16 17 17 17 17 17 17 17 17 17 17 17 18 18 18 18 17 16 17 16
11 12 12 12 12 12 12 12 13 13 13 16 15 15 15 15 15 15 15 14 15 15 14 16 16 17 17 17 17 17 17 17 17 18 17 18 17 18 18 18 18 17 17 17 17
11 12 12 12 12 12 13 13 13 13 13 15 15 15 15 15 15 14 15 14 14 15 15 16 16 16 17 17 17 17 17 17 18 17 16 16 17 18 18 18 18 17 18 17 17
11 12 12 12 13 12 13 13 12 12 15 15 16 15 15 15 15 14 15 15 15 15 16 17 17 17 17 17 17 17 17 17 14 13 14 18 17 17 18 18 17 18 18 17 17
12 12 12 12 13 13 13 13 13 14 15 16 16 15 16 15 15 15 16 16 16 15 15 15 17 17 17 17 17 17 17 17 15 11 15 17 17 15 17 18 17 17 17 17 15
12 12 12 12 12 12 12 14 14 15 15 15 16 16 16 16 16 16 16 17 16 16 15 16 17 17 17 17 17 17 18 18 18 16 16 17 17 16 16 16 16 16 16 16 14
11 12 12 12 12 13 13 14 15 15 15 15 15 16 16 17 16 16 16 16 16 16 17 17 17 16 17 17 17 17 17 18 18 14 13 16 17 16 16 16 16 16 16 15 13
11 11 11 11 12 13 13 14 15 15 15 16 16 16 16 16 16 16 16 16 16 16 17 16 16 17 17 16 16 16 16 17 17 17 12 11 14 15 15 15 16 16 15 14 14
11 11 11 11 12 13 14 15 15 15 15 15 16 16 16 16 16 16 16 16 15 16 15 15 15 15 16 16 16 16 15 15 16 16 16 15 14 13 13 14 14 14 14 15 15
10 11 11 11 12 12 13 14 14 15 15 15 15 15 15 15 15 15 15 15 15 15 15 15 15 15 16 16 16 15 15 15 15 16 15 13 13 12 13 13 13 13 13 13 13
10 10 10 11 12 13 13 14 14 15 15 15 15 15 15 15 15 15 15 14 14 14 14 14 14 13 13 13 13 14 14 15 15 15 15 14 12 13 13 13 12 12 12 11 11
10 10 10 11 12 12 13 14 14 14 15 15 14 14 15 15 14 13 13 13 13 13 13 14 13 13 13 12 13 13 14 14 14 15 15 14 13 12 12 11 11 10 10 10 10
10 11 11 11 11 13 13 13 13 14 14 14 14 14 14 14 14 13 13 13 12 12 12 12 13 13 13 13 13 13 13 14 14 14 14 13 10 9 10 10 10 10 10 10 10
10 11 11 11 12 13 12 13 13 13 13 13 13 13 13 13 13 13 13 13 13 12 12 12 12 12 11 12 12 13 13 13 13 13 13 11 10 9 9 9 9 9 9 9 9